[[{"header":{"parameterUnit":"m.s-1","parameterCategory":1,"la1":30.2991,"la2":30.254,"lo1":-89.0895,"lo2":-89.0444,"dy":0.0017,"dx":0.0017,"nx":28,"ny":28,"refTime":"2025-03-14T21:00:00:Z","depth":0,"parameterNumber":2,"parameterNumberName":"U-component_of_WINDS"},"data":[0,0,0,0,0,0,0,0,0,0,0,0,0,0,0,0,0,0,0,0,0,0,0,0,0,0,0,0,0,0,0,0,0,0,0,0,0,0,0,0,0,0,0,0,0,0,0,0,0,0,0,0,0,0,0,0,0,0,-4.4974,-4.4975,0,-4.5069,-4.507,-4.5071,-4.5079,-4.5078,-4.5077,-4.5076,-4.5169,-4.5172,-4.5175,0,0,0,0,0,0,0,0,0,0,0,0,0,-4.4797,-4.48,-4.4974,-4.4975,-4.4976,-4.5069,-4.507,-4.5071,-4.5079,-4.5078,-4.5076,-4.5075,-4.5167,-4.5171,-4.5176,0,0,0,0,0,0,0,0,0,0,0,0,0,-4.4881,-4.4801,-4.4974,-4.4991,-4.4994,-4.5068,-4.507,-4.5071,-4.5079,-4.5077,-4.5076,-4.5075,-4.5166,-4.5171,-4.5176,-4.5238,0,0,-4.5192,-4.5194,0,0,0,0,0,0,0,0,-4.4876,-4.4887,-4.4988,-4.499,-4.4993,-4.506,-4.5042,-4.5127,-4.5079,-4.5047,-4.5076,-4.5074,-4.5134,-4.5141,-4.5162,-4.5243,-4.5247,-4.5192,-4.5195,-4.5198,-4.5199,0,0,0,0,0,0,0,-4.487,-4.4883,-4.5011,-4.4989,-4.4993,-4.4994,-4.5004,-4.5058,-4.5097,-4.5049,-4.505,-4.5061,-4.5135,-4.5157,-4.5164,-4.5248,-4.5192,-4.5197,-4.52,-4.5202,-4.5384,-4.5386,0,0,0,0,0,0,-4.4862,-4.4879,-4.5008,-4.5014,-4.493,-4.4998,-4.501,-4.504,-4.5097,-4.5104,-4.5063,-4.5061,-4.5149,-4.5158,-4.5168,-4.5244,-4.5198,-4.5202,-4.5205,-4.5382,-4.5384,-4.5386,0,0,0,0,0,0,-4.4858,-4.4873,-4.5005,-4.4947,-4.4964,-4.5003,-4.5037,-4.5043,-4.5065,-4.5107,-4.5114,-4.5079,-4.5148,-4.516,-4.5221,-4.5247,-4.5205,-4.5209,-4.538,-4.5383,-4.5385,-4.5396,0,0,0,0,0,0,-4.4853,-4.4872,-4.4896,-4.4947,-4.4967,-4.5057,-4.5039,-4.5046,-4.5075,-4.5074,-4.5124,-4.513,-4.5148,-4.5213,-4.5226,-4.5253,-4.5213,-4.5378,-4.5381,-4.5385,-4.5394,-4.5399,-4.5404,0,0,0,0,0,-4.4846,-4.4895,-4.4898,-4.4913,-4.4998,-4.5058,-4.5069,-4.509,-4.5077,-4.5101,-4.5128,-4.5129,-4.5243,-4.5219,-4.5234,-4.5263,-4.5376,-4.538,-4.5384,-4.5392,-4.5398,-4.5403,0,0,0,0,0,0,-4.4844,-4.4902,-4.4905,-4.4972,-4.501,-4.506,-4.5091,-4.5096,-4.5138,-4.5136,-4.5159,-4.517,-4.5229,-4.5253,-4.5226,-4.5326,-4.5308,-4.5315,-4.5309,-4.5315,-4.532,-4.5312,-4.5218,0,0,0,0,0,-4.4852,-4.4897,-4.4944,-4.4998,-4.5018,-4.5051,-4.5078,-4.5091,-4.5131,-4.5147,-4.5178,-4.5217,-4.5261,-4.529,-4.5333,-4.5398,-4.5408,-4.5425,-4.543,-4.5434,-4.5439,-4.5475,-4.5483,-4.5399,-4.5399,-4.5399,0,0,-4.4867,-4.4904,-4.4931,-4.4999,-4.503,-4.5076,-4.5065,-4.5113,-4.5146,-4.5154,-4.5213,-4.5238,-4.5282,-4.5345,-4.5374,-4.5366,-4.5465,-4.5439,-4.5442,-4.5445,-4.548,-4.5488,-4.5495,-4.5402,-4.5402,-4.5401,0,0,-4.4918,-4.4951,-4.5,-4.5032,-4.508,-4.5102,-4.5114,-4.5163,-4.518,-4.524,-4.5247,-4.5287,-4.5363,-4.5395,-4.542,-4.5485,-4.5487,-4.5499,-4.5523,-4.5558,-4.5564,-4.557,-4.5592,-4.56,-4.5504,-4.5504,-4.5504,0,-4.493,-4.5,-4.5023,-4.5072,-4.5101,-4.5113,-4.5162,-4.5191,-4.5251,-4.527,-4.5261,-4.5358,-4.5388,-4.5458,-4.5474,-4.5495,-4.5508,-4.5492,-4.5562,-4.5568,-4.5574,-4.5595,-4.5603,-4.5505,-4.5505,-4.5505,-4.5505,0,-4.5012,-4.506,-4.5094,-4.5152,-4.5186,-4.5234,-4.5265,-4.5295,-4.5306,-4.5329,-4.539,-4.5428,-4.5479,-4.5497,-4.5507,-4.5569,-4.5562,-4.5557,-4.5539,-4.5582,-4.5602,-4.5611,-4.5506,-4.5506,-4.5506,-4.5505,0,0,-4.5062,-4.5135,-4.5146,-4.5173,-4.5228,-4.5265,-4.5315,-4.5366,-4.5392,-4.5433,-4.5473,-4.5539,-4.5535,-4.5564,-4.5578,-4.5609,-4.5657,-4.56,-4.5602,-4.5608,-4.5726,-4.5729,-4.5738,-4.5659,-4.5661,-4.5662,-4.5722,0,-4.5118,-4.5206,-4.523,-4.5304,-4.5349,-4.5361,-4.5404,-4.5442,-4.5465,-4.5505,-4.5531,-4.5576,-4.5568,-4.5586,-4.5617,-4.5644,-4.5681,-4.5641,-4.5696,-4.5698,-4.5683,-4.5748,-4.5751,-4.5805,-4.573,-4.5732,-4.5733,0,-4.5195,-4.5239,-4.5318,-4.5368,-4.5388,-4.5426,-4.5475,-4.5514,-4.5557,-4.5572,-4.5606,-4.5617,-4.5668,-4.5649,-4.5718,-4.5691,-4.5715,-4.5732,-4.5735,-4.5739,-4.5716,-4.5753,-4.5823,-4.5831,-4.5746,-4.5745,-4.5744,0,-4.5221,-4.5301,-4.5359,-4.5382,-4.5441,-4.5468,-4.5494,-4.5536,-4.5565,-4.5608,-4.5628,-4.5676,-4.5701,-4.5738,-4.5762,-4.5746,-4.5829,-4.5812,-4.5842,-4.5841,-4.5857,-4.5855,-4.593,-4.5875,-4.5875,-4.5875,-4.5875,0,-4.5281,-4.5328,-4.5372,-4.5407,-4.5461,-4.5488,-4.554,-4.5566,-4.5604,-4.5644,-4.5657,-4.5694,-4.5725,-4.5766,-4.5785,-4.5839,-4.5851,-4.5863,-4.5867,-4.5861,-4.5859,-4.5876,-4.5872,-4.5877,-4.5877,-4.5876,-4.5876,0,-4.5319,-4.535,-4.5414,-4.5466,-4.548,-4.5517,-4.5562,-4.5596,-4.5621,-4.5671,-4.5685,-4.5723,-4.5772,-4.58,-4.5861,-4.5874,-4.5934,-4.5937,-4.592,-4.5921,-4.5949,-4.5945,-4.6036,-4.6049,-4.5986,-4.5987,-4.5988,0,-4.5353,-4.5391,-4.5448,-4.5476,-4.5503,-4.5548,-4.5579,-4.5607,-4.5638,-4.5691,-4.5719,-4.577,-4.5811,-4.5889,-4.5921,-4.5968,-4.5972,-4.6,-4.5979,-4.5971,-4.5971,-4.5968,-4.5971,-4.6003,-4.6004,-4.6004,-4.6005,0,-4.5412,-4.5426,-4.547,-4.552,-4.5557,-4.5597,-4.5637,-4.566,-4.5694,-4.5729,-4.578,-4.5812,-4.5876,-4.5925,-4.5976,-4.6001,-4.6008,-4.6012,-4.6021,-4.6014,-4.6002,-4.6007,-4.5928,-4.6009,-4.6008,-4.6008,-4.6008,-4.6008,-4.5448,-4.5482,-4.5528,-4.5577,-4.561,-4.5648,-4.5683,-4.5713,-4.5756,-4.5811,-4.5825,-4.5878,-4.5921,-4.5989,-4.6017,-4.6058,-4.6053,-4.6066,-4.607,-4.6072,-4.6072,-4.5997,-4.6068,-4.6068,-4.6067,-4.6067,-4.6067,0,-4.5506,-4.5537,-4.5582,-4.5638,-4.5677,-4.5682,-4.5727,-4.5759,-4.5806,-4.5846,-4.5887,-4.5946,-4.5994,-4.6031,-4.6081,-4.6107,-4.6111,-4.6119,-4.6116,-4.6122,-4.6075,-4.6061,-4.6114,-4.6114,-4.6114,-4.6114,-4.6114,-4.6114,-4.5541,-4.5598,-4.5617,-4.5691,-4.5721,-4.5775,-4.58,-4.5834,-4.5866,-4.5932,-4.5972,-4.5997,-4.6036,-4.6088,-4.6133,-4.6142,-4.6159,-4.6166,-4.6175,-4.613,-4.6125,-4.612,-4.6108,-4.617,-4.617,-4.6219,-4.622,-4.622]},{"header":{"parameterUnit":"m.s-1","parameterCategory":1,"la1":30.2991,"la2":30.254,"lo1":-89.0895,"lo2":-89.0444,"dy":0.0017,"dx":0.0017,"nx":28,"ny":28,"refTime":"2025-03-14T21:00:00:Z","depth":0,"parameterNumber":3,"parameterNumberName":"V-component_of_WINDS"},"data":[0,0,0,0,0,0,0,0,0,0,0,0,0,0,0,0,0,0,0,0,0,0,0,0,0,0,0,0,0,0,0,0,0,0,0,0,0,0,0,0,0,0,0,0,0,0,0,0,0,0,0,0,0,0,0,0,0,0,7.1086,7.1086,0,7.112,7.112,7.1121,7.1058,7.1056,7.1054,7.1052,7.1083,7.1085,7.1088,0,0,0,0,0,0,0,0,0,0,0,0,0,7.0964,7.0967,7.1086,7.1086,7.1086,7.112,7.112,7.1121,7.1058,7.1056,7.1053,7.1051,7.1082,7.1085,7.1088,0,0,0,0,0,0,0,0,0,0,0,0,0,7.1009,7.0967,7.1085,7.1059,7.1057,7.112,7.112,7.1121,7.1059,7.1056,7.1052,7.1049,7.1081,7.1085,7.1089,7.1177,0,0,7.1101,7.1103,0,0,0,0,0,0,0,0,7.1007,7.1014,7.1063,7.1061,7.1059,7.1081,7.1089,7.1139,7.1059,7.1058,7.1052,7.1048,7.1084,7.1088,7.1101,7.1178,7.1179,7.1102,7.1104,7.1106,7.1107,0,0,0,0,0,0,0,7.1004,7.1012,7.1099,7.1064,7.1061,7.1045,7.1048,7.1098,7.1088,7.1058,7.1053,7.1059,7.1083,7.1097,7.1101,7.118,7.1102,7.1105,7.1108,7.1109,7.1334,7.1337,0,0,0,0,0,0,7.1004,7.101,7.1098,7.11,7.1025,7.105,7.1053,7.1077,7.1087,7.1086,7.1061,7.1056,7.1092,7.1097,7.1102,7.1208,7.1106,7.111,7.1112,7.1331,7.1335,7.1339,0,0,0,0,0,0,7.1002,7.1013,7.1096,7.1054,7.1063,7.1055,7.1083,7.108,7.1094,7.109,7.1088,7.1078,7.109,7.1096,7.116,7.1209,7.1112,7.1115,7.1327,7.1332,7.1337,7.142,0,0,0,0,0,0,7.0999,7.1012,7.1046,7.1055,7.1066,7.1154,7.1086,7.1083,7.1102,7.1095,7.1105,7.1104,7.1088,7.1154,7.1164,7.1213,7.1119,7.1322,7.1329,7.1335,7.1413,7.1428,7.144,0,0,0,0,0,7.0995,7.1066,7.1048,7.1059,7.1108,7.1157,7.1163,7.1144,7.1106,7.114,7.1138,7.1104,7.1202,7.1161,7.1172,7.1222,7.1319,7.1327,7.1335,7.1407,7.1425,7.144,0,0,0,0,0,0,7.1061,7.1067,7.1047,7.1124,7.1141,7.1146,7.1188,7.1163,7.119,7.1182,7.1156,7.1159,7.1228,7.1231,7.1185,7.131,7.1254,7.1264,7.1305,7.1322,7.1335,7.1334,7.1122,0,0,0,0,0,7.1085,7.1125,7.1128,7.1196,7.1205,7.1196,7.1216,7.1201,7.1217,7.1223,7.1225,7.1241,7.1276,7.1299,7.133,7.1413,7.1415,7.1453,7.1467,7.1478,7.1488,7.1535,7.1552,7.1364,7.1364,7.1364,0,0,7.1133,7.1142,7.1169,7.1209,7.122,7.1263,7.1202,7.1248,7.128,7.1229,7.1291,7.1293,7.1309,7.1384,7.1416,7.1388,7.154,7.1488,7.1497,7.15,7.1544,7.1562,7.1578,7.137,7.1369,7.1368,0,0,7.1245,7.1255,7.1314,7.1328,7.1347,7.1341,7.1355,7.1366,7.1366,7.1427,7.1391,7.1427,7.1487,7.1501,7.1516,7.1637,7.1607,7.1647,7.1718,7.1764,7.1779,7.1792,7.1838,7.1854,7.1656,7.1657,7.1657,0,7.1303,7.1367,7.1347,7.1398,7.1418,7.1377,7.1437,7.145,7.1478,7.1492,7.146,7.1537,7.1544,7.1623,7.1653,7.1665,7.1682,7.1646,7.1779,7.1792,7.1804,7.1846,7.1863,7.1662,7.1661,7.1661,7.166,0,7.1439,7.1484,7.1529,7.1561,7.1585,7.164,7.1628,7.1655,7.1638,7.1635,7.17,7.1708,7.1741,7.1759,7.1741,7.1836,7.1818,7.1783,7.1727,7.1827,7.1867,7.1883,7.1669,7.1667,7.1666,7.1664,0,0,7.1592,7.1614,7.1631,7.1647,7.1666,7.17,7.1753,7.1789,7.1814,7.1834,7.1879,7.1932,7.1901,7.1918,7.1902,7.1942,7.2041,7.1902,7.1902,7.193,7.2148,7.2176,7.2195,7.2021,7.2024,7.2026,7.2148,0,7.1705,7.18,7.1785,7.1877,7.1919,7.1882,7.1929,7.1946,7.1945,7.198,7.1978,7.2018,7.1972,7.1983,7.2021,7.2021,7.2084,7.2011,7.2063,7.2065,7.2062,7.2216,7.2244,7.2359,7.2163,7.2166,7.2168,0,7.1849,7.1879,7.1976,7.1992,7.2009,7.2052,7.2085,7.2119,7.2138,7.2134,7.2156,7.2133,7.2187,7.2129,7.2204,7.2155,7.2175,7.2178,7.2182,7.2187,7.2124,7.2227,7.2394,7.2413,7.2192,7.219,7.2188,0,7.1955,7.2018,7.2086,7.2099,7.2119,7.215,7.2159,7.2175,7.2199,7.2227,7.2242,7.2275,7.2293,7.232,7.2307,7.2266,7.2385,7.2325,7.2384,7.2385,7.2411,7.241,7.2587,7.2422,7.2421,7.2421,7.2421,0,7.2083,7.2145,7.2134,7.2175,7.2243,7.2225,7.2293,7.2297,7.2312,7.2354,7.2322,7.2362,7.2341,7.2379,7.2369,7.2434,7.2442,7.2441,7.2438,7.2445,7.2446,7.2459,7.2451,7.2426,7.2425,7.2424,7.2423,0,7.2212,7.2207,7.2279,7.2293,7.2298,7.2348,7.2359,7.2398,7.2396,7.2449,7.246,7.2456,7.25,7.2489,7.2536,7.2529,7.2612,7.2597,7.2606,7.2603,7.2664,7.2659,7.2856,7.2882,7.2699,7.2701,7.2702,0,7.2296,7.2343,7.2363,7.239,7.2403,7.2446,7.247,7.2455,7.2482,7.2509,7.2545,7.2586,7.2618,7.2689,7.269,7.2726,7.2714,7.278,7.2719,7.2726,7.2718,7.2716,7.2721,7.2793,7.2795,7.2797,7.2798,0,7.2445,7.2442,7.2479,7.2517,7.2549,7.2577,7.2602,7.2625,7.2612,7.2644,7.2689,7.2715,7.2764,7.2806,7.284,7.2848,7.2822,7.2818,7.2834,7.2842,7.2846,7.2847,7.2642,7.2813,7.2812,7.2811,7.281,7.2809,7.2556,7.2597,7.2619,7.2663,7.2681,7.2706,7.2745,7.2749,7.2787,7.2828,7.2816,7.2868,7.2888,7.2931,7.2944,7.2985,7.2959,7.2982,7.2988,7.2994,7.3003,7.2839,7.299,7.299,7.2989,7.2989,7.2989,0,7.2706,7.2719,7.2759,7.2798,7.2833,7.2807,7.2834,7.2865,7.2912,7.2933,7.2967,7.302,7.3062,7.3067,7.3106,7.3137,7.3126,7.3148,7.3146,7.3149,7.3022,7.3005,7.3157,7.3157,7.3157,7.3157,7.3157,7.3156,7.2788,7.2858,7.2857,7.2936,7.2947,7.3001,7.3019,7.3042,7.306,7.3122,7.3157,7.3161,7.3176,7.3217,7.3253,7.3254,7.327,7.3298,7.3294,7.3175,7.3158,7.3142,7.3127,7.3301,7.3301,7.3418,7.3419,7.342]}]]